This is the latest recevied weather packets stored in our database for station/object N4XWC. If no packets are shown the sender has not sent any weather packets the latest 10 day(s).
| Time | Temp. | Humidity | Pressure | Rain* | Wind** | Luminosity | Snow |
|---|---|---|---|---|---|---|---|
| 1777458525 | 16.67° C | 100% | 1013.6 hPa | 1.27 mm | - | - | - |
| 1777458226 | 16.67° C | 100% | 1013.6 hPa | 1.27 mm | - | - | - |
| 1777458135 | 16.67° C | 100% | 1013.6 hPa | 1.27 mm | - | - | - |
| 1777457926 | 16.67° C | 100% | 1013.6 hPa | 1.78 mm | - | - | - |
| 1777457625 | 16.67° C | 100% | 1013.1 hPa | 1.78 mm | - | - | - |
| 1777457537 | 16.67° C | 100% | 1013.1 hPa | 1.78 mm | - | - | - |
| 1777457325 | 16.67° C | 100% | 1013.1 hPa | 2.29 mm | - | - | - |
| 1777457026 | 16.67° C | 100% | 1013.1 hPa | 2.03 mm | - | - | - |
| 1777456934 | 16.67° C | 100% | 1013.1 hPa | 2.03 mm | - | - | - |
| 1777456724 | 16.67° C | 100% | 1013.7 hPa | 2.29 mm | - | - | - |
| 1777456425 | 16.67° C | 100% | 1013.7 hPa | 2.29 mm | - | - | - |
| 1777456335 | 16.67° C | 100% | 1013.7 hPa | 2.29 mm | - | - | - |
| 1777456126 | 16.67° C | 100% | 1013.7 hPa | 2.03 mm | - | - | - |
| 1777455825 | 16.67° C | 100% | 1014.8 hPa | 2.03 mm | - | - | - |
| 1777455735 | 16.67° C | 100% | 1014.8 hPa | 2.03 mm | - | - | - |
| 1777455526 | 16.67° C | 100% | 1014.8 hPa | 1.78 mm | - | - | - |
| 1777455224 | 16.67° C | 100% | 1014.8 hPa | 1.78 mm | - | - | - |
| 1777455133 | 16.67° C | 100% | 1014.8 hPa | 1.78 mm | - | - | - |
| 1777454925 | 16.67° C | 100% | 1014.7 hPa | 1.52 mm | - | - | - |
| 1777454626 | 16.67° C | 100% | 1014.7 hPa | 1.27 mm | - | - | - |
| 1777454535 | 16.67° C | 100% | 1014.7 hPa | 1.27 mm | - | - | - |
| 1777454324 | 16.67° C | 100% | 1014.7 hPa | 1.52 mm | - | - | - |
| 1777454025 | 16.67° C | 100% | 1014.8 hPa | 1.27 mm | - | - | - |
| 1777453725 | 16.67° C | 100% | 1014.8 hPa | 1.02 mm | - | - | - |
| 1777453424 | 16.67° C | 100% | 1014.8 hPa | 0.76 mm | - | - | - |
* Rain latest hour (hover to see other rain measurements)
** Current wind speed in m/s (hover to see current wind gust speed)